Location: Gleizolles
(44.4833°N, 6.7667°E)
Time: 02:20:01
(UTC+00:00)

RS-44 - Visible Passes

Search period start: 10 December 2022 00:00
Search period end: 20 December 2022 00:00
Orbit: 1175 x 1510 km, 82.5° (Epoch: 09 December)

Date Brightness Start Highest point End Pass type
(mag) Time Alt. Az. Time Alt. Az. Time Alt. Az.
10 Dec ? 00:52:53 10° NNE 00:52:53 10° NNE 00:53:01 10° NNE visible
10 Dec ? 02:45:30 19° N 02:45:30 19° N 02:47:39 10° N visible
10 Dec ? 04:38:07 13° NNW 04:38:07 13° NNW 04:39:31 10° NNW visible
11 Dec ? 01:16:49 12° NNE 01:16:49 12° NNE 01:17:30 10° NNE visible
11 Dec ? 03:09:26 18° N 03:09:26 18° N 03:11:22 10° N visible
12 Dec ? 01:40:44 14° NNE 01:40:44 14° NNE 01:41:41 10° NNE visible
12 Dec ? 03:33:20 16° N 03:33:20 16° N 03:34:55 10° N visible
13 Dec ? 02:04:37 14° N 02:04:37 14° N 02:05:41 10° N visible
13 Dec ? 03:57:13 13° NNW 03:57:13 13° NNW 03:58:14 10° N visible
14 Dec ? 02:28:28 14° N 02:28:28 14° N 02:29:31 10° N visible
14 Dec ? 04:21:05 10° NNW 04:21:05 10° NNW 04:21:06 10° NNW visible
15 Dec ? 02:52:19 13° N 02:52:19 13° N 02:53:12 10° N visible
16 Dec ? 01:23:32 10° NNE 01:23:32 10° NNE 01:23:38 10° NNE visible
16 Dec ? 03:16:08 12° N 03:16:08 12° N 03:16:41 10° N visible
17 Dec ? 01:47:21 11° N 01:47:21 11° N 01:47:35 10° N visible
18 Dec ? 02:11:08 11° N 02:11:08 11° N 02:11:22 10° N visible
19 Dec ? 02:34:55 10° N 02:34:55 10° N 02:35:00 10° N visible
